FW6984 Weather Reports


time (UTC)temp
C
wind
direction
speed
KPH
gust
KPH
rain 1hr
cm
rain 24hr
cm
rain mn
cm
humidity
%
barometer
mb
20260510221510 30 333 16.1 29.0 0.00 0.00 0.00 13 1004.0
20260510221012 30 326 11.3 24.1 0.00 0.00 0.00 13 1004.0
20260510220513 31 335 14.5 24.1 0.00 0.00 0.00 13 1004.0
20260510220013 31 33 4.8 14.5 0.00 0.00 0.00 14 1004.0
20260510215510 31 164 8.0 24.1 0.00 0.00 0.00 14 1004.0
20260510215009 31 227 11.3 24.1 0.00 0.00 0.00 14 1004.0
20260510214509 31 260 8.0 19.3 0.00 0.00 0.00 14 1004.0
20260510214009 31 177 12.9 19.3 0.00 0.00 0.00 14 1004.0
20260510213509 31 27 3.2 14.5 0.00 0.00 0.00 14 1004.2
20260510213009 30 23 6.4 14.5 0.00 0.00 0.00 14 1004.3
20260510212512 30 60 6.4 19.3 0.00 0.00 0.00 14 1004.2
20260510212010 31 355 8.0 14.5 0.00 0.00 0.00 14 1004.4
20260510211508 31 132 4.8 8.0 0.00 0.00 0.00 13 1004.4
20260510211008 31 43 1.6 16.1 0.00 0.00 0.00 14 1004.5
20260510210511 31 27 6.4 17.7 0.00 0.00 0.00 14 1004.5
20260510210009 31 341 12.9 20.9 0.00 0.00 0.00 14 1004.5
20260510205510 30 315 14.5 20.9 0.00 0.00 0.00 14 1004.5
20260510205008 30 333 3.2 27.4 0.00 0.00 0.00 14 1004.6
20260510204509 30 346 16.1 27.4 0.00 0.00 0.00 14 1004.7
20260510204006 31 19 17.7 27.4 0.00 0.00 0.00 14 1004.6
20260510203507 31 14 12.9 27.4 0.00 0.00 0.00 14 1004.6
20260510203005 31 321 16.1 25.7 0.00 0.00 0.00 14 1004.7
20260510202506 31 337 12.9 25.7 0.00 0.00 0.00 14 1004.7
20260510202005 31 306 16.1 25.7 0.00 0.00 0.00 14 1004.8
20260510201504 31 41 6.4 22.5 0.00 0.00 0.00 14 1004.7
20260510201004 32 15 12.9 19.3 0.00 0.00 0.00 14 1004.8
20260510200506 31 35 1.6 17.7 0.00 0.00 0.00 13 1004.8
20260510200006 31 116 4.8 12.9 0.00 0.00 0.00 13 1004.8
20260510195501 31 13 1.6 12.9 0.00 0.00 0.00 14 1004.9
20260510195100 31 301 4.8 14.5 0.00 0.00 0.00 14 1005.0
20260510194611 31 297 6.4 24.1 0.00 0.00 0.00 14 1005.0
20260510194100 31 300 8.0 24.1 0.00 0.00 0.00 14 1005.0
20260510193559 31 324 11.3 22.5 0.00 0.00 0.00 14 1005.0
20260510193106 31 29 12.9 22.5 0.00 0.00 0.00 14 1005.0
20260510192557 31 355 12.9 35.4 0.00 0.00 0.00 14 1005.0
20260510192057 31 344 17.7 35.4 0.00 0.00 0.00 14 1005.1
20260510191605 31 168 0.0 14.5 0.00 0.00 0.00 14 1005.2
20260510191055 31 193 6.4 14.5 0.00 0.00 0.00 14 1005.2
20260510190554 31 149 1.6 17.7 0.00 0.00 0.00 14 1005.2
20260510190059 30 250 8.0 17.7 0.00 0.00 0.00 15 1005.3
20260510185554 30 22 3.2 12.9 0.00 0.00 0.00 15 1005.4
20260510185053 30 21 4.8 14.5 0.00 0.00 0.00 15 1005.5
20260510184600 30 285 4.8 14.5 0.00 0.00 0.00 15 1005.5
20260510184054 30 252 8.0 17.7 0.00 0.00 0.00 15 1005.5
20260510183552 30 298 6.4 17.7 0.00 0.00 0.00 15 1005.5
20260510183051 30 344 8.0 16.1 0.00 0.00 0.00 15 1005.6
20260510182552 30 279 4.8 16.1 0.00 0.00 0.00 15 1005.6
20260510182049 30 268 3.2 19.3 0.00 0.00 0.00 15 1005.6
20260510181553 30 279 8.0 24.1 0.00 0.00 0.00 15 1005.7
20260510181047 30 300 14.5 25.7 0.00 0.00 0.00 15 1005.7
20260510180546 30 308 16.1 25.7 0.00 0.00 0.00 16 1005.7
20260510180045 30 15 12.9 20.9 0.00 0.00 0.00 16 1005.8
20260510175543 30 302 6.4 17.7 0.00 0.00 0.00 15 1005.8
20260510175044 30 304 4.8 12.9 0.00 0.00 0.00 15 1005.9
20260510174544 29 51 1.6 16.1 0.00 0.00 0.00 16 1006.0
20260510174039 29 48 9.7 25.7 0.00 0.00 0.00 16 1006.0
20260510173538 29 80 11.3 25.7 0.00 0.00 0.00 16 1005.9
20260510173039 29 41 11.3 24.1 0.00 0.00 0.00 16 1005.9
20260510172536 29 14 12.9 22.5 0.00 0.00 0.00 17 1005.9
20260510172039 29 125 8.0 25.7 0.00 0.00 0.00 16 1005.9
20260510171535 29 337 12.9 25.7 0.00 0.00 0.00 16 1005.9
20260510171032 29 45 8.0 19.3 0.00 0.00 0.00 16 1005.9
20260510170533 29 118 4.8 24.1 0.00 0.00 0.00 16 1005.8
20260510170029 29 29 12.9 29.0 0.00 0.00 0.00 17 1005.9
20260510165528 29 42 17.7 29.0 0.00 0.00 0.00 17 1005.7
20260510165026 28 22 14.5 29.0 0.00 0.00 0.00 17 1005.7
20260510164524 28 4 11.3 33.8 0.00 0.00 0.00 17 1005.6
20260510164022 28 21 22.5 33.8 0.00 0.00 0.00 17 1005.6
20260510163521 28 50 17.7 29.0 0.00 0.00 0.00 18 1005.5
20260510163020 28 50 17.7 29.0 0.00 0.00 0.00 17 1005.5
20260510162519 28 58 17.7 30.6 0.00 0.00 0.00 18 1005.5
20260510162017 27 45 19.3 30.6 0.00 0.00 0.00 18 1005.5
20260510161519 28 51 22.5 32.2 0.00 0.00 0.00 18 1005.5
20260510161014 28 54 22.5 37.0 0.00 0.00 0.00 18 1005.4
20260510160514 27 23 25.7 38.6 0.00 0.00 0.00 18 1005.4
20260510160018 27 19 25.7 38.6 0.00 0.00 0.00 18 1005.4
20260510155513 27 344 19.3 37.0 0.00 0.00 0.00 18 1005.4
20260510155010 27 360 22.5 32.2 0.00 0.00 0.00 18 1005.4
20260510154507 27 350 20.9 33.8 0.00 0.00 0.00 19 1005.3
20260510154006 27 34 25.7 33.8 0.00 0.00 0.00 19 1005.3
20260510153505 27 33 22.5 30.6 0.00 0.00 0.00 19 1005.2
20260510153006 27 39 20.9 32.2 0.00 0.00 0.00 19 1005.1
20260510152502 27 10 20.9 32.2 0.00 0.00 0.00 19 1005.1
20260510152000 27 9 19.3 35.4 0.00 0.00 0.00 19 1005.1
20260510151605 27 18 24.1 38.6 0.00 0.00 0.00 19 1005.1
20260510151058 26 41 29.0 38.6 0.00 0.00 0.00 19 1005.1
20260510150557 26 48 20.9 33.8 0.00 0.00 0.00 19 1005.1
20260510150057 26 33 20.9 33.8 0.00 0.00 0.00 20 1005.1
20260510145553 25 17 24.1 32.2 0.00 0.00 0.00 20 1005.2
20260510145051 25 6 19.3 29.0 0.00 0.00 0.00 21 1005.1
20260510144551 24 39 16.1 27.4 0.00 0.00 0.00 21 1005.0
20260510144049 24 24 19.3 25.7 0.00 0.00 0.00 21 1005.0
20260510143548 23 11 16.1 22.5 0.00 0.00 0.00 21 1005.1
20260510143046 23 19 16.1 22.5 0.00 0.00 0.00 22 1005.0
20260510142545 23 33 14.5 27.4 0.00 0.00 0.00 22 1005.0
20260510142044 23 8 12.9 27.4 0.00 0.00 0.00 22 1005.0
20260510141544 22 23 16.1 27.4 0.00 0.00 0.00 22 1004.9
20260510141041 22 345 17.7 27.4 0.00 0.00 0.00 22 1004.9
20260510140539 22 31 19.3 27.4 0.00 0.00 0.00 22 1004.8
20260510140040 22 24 16.1 27.4 0.00 0.00 0.00 23 1004.7
20260510135537 21 30 19.3 29.0 0.00 0.00 0.00 23 1004.8
20260510135035 21 34 19.3 27.4 0.00 0.00 0.00 23 1004.6
20260510134537 21 40 19.3 27.4 0.00 0.00 0.00 23 1004.7
20260510134031 21 32 19.3 30.6 0.00 0.00 0.00 23 1004.8
20260510133532 21 17 20.9 32.2 0.00 0.00 0.00 23 1004.8
20260510133029 21 8 19.3 25.7 0.00 0.00 0.00 23 1004.7
20260510132527 21 360 16.1 25.7 0.00 0.00 0.00 23 1004.8
20260510132029 20 350 16.1 24.1 0.00 0.00 0.00 24 1004.8
20260510131525 20 13 12.9 20.9 0.00 0.00 0.00 25 1004.8
20260510131023 19 10 11.3 17.7 0.00 0.00 0.00 26 1004.7
20260510130522 19 16 12.9 19.3 0.00 0.00 0.00 26 1004.7
20260510130122 18 360 12.9 19.3 0.00 0.00 0.00 26 1004.7
20260510125519 18 360 12.9 22.5 0.00 0.00 0.00 26 1004.6
20260510125016 18 31 14.5 22.5 0.00 0.00 0.00 26 1004.5
20260510124515 18 39 16.1 22.5 0.00 0.00 0.00 26 1004.4
20260510124018 19 33 16.1 22.5 0.00 0.00 0.00 25 1004.4
20260510123513 19 13 12.9 19.3 0.00 0.00 0.00 25 1004.5
20260510123011 20 21 12.9 20.9 0.00 0.00 0.00 24 1004.4
20260510122509 20 21 14.5 25.7 0.00 0.00 0.00 24 1004.3
20260510122008 20 11 16.1 25.7 0.00 0.00 0.00 24 1004.2
20260510121507 19 22 12.9 17.7 0.00 0.00 0.00 24 1004.0
20260510121006 19 24 11.3 16.1 0.00 0.00 0.00 24 1004.0
20260510120508 20 30 8.0 17.7 0.00 0.00 0.00 24 1003.9
20260510120005 19 22 12.9 19.3 0.00 0.00 0.00 24 1003.8
20260510115504 19 39 11.3 19.3 0.00 0.00 0.00 24 1003.8
20260510115001 20 59 9.7 14.5 0.00 0.00 0.00 24 1003.7
20260510114603 20 59 8.0 14.5 0.00 0.00 0.00 24 1003.7
20260510114101 20 64 9.7 17.7 0.00 0.00 0.00 24 1003.7
20260510113559 20 50 11.3 17.7 0.00 0.00 0.00 23 1003.7
20260510113059 20 76 11.3 17.7 0.00 0.00 0.00 23 1003.6
20260510112559 21 77 11.3 17.7 0.00 0.00 0.00 23 1003.7
20260510112100 21 65 11.3 17.7 0.00 0.00 0.00 22 1003.6
20260510111558 21 48 9.7 14.5 0.00 0.00 0.00 22 1003.7
20260510111057 21 23 8.0 14.5 0.00 0.00 0.00 22 1003.6
20260510110557 21 29 8.0 17.7 0.00 0.00 0.00 22 1003.6
20260510110101 21 35 8.0 17.7 0.00 0.00 0.00 22 1003.5
20260510105557 21 26 4.8 17.7 0.00 0.00 0.00 22 1003.5
20260510105055 21 35 9.7 20.9 0.00 0.00 0.00 22 1003.3
20260510104555 21 32 11.3 20.9 0.00 0.00 0.00 22 1003.3
20260510104056 20 28 9.7 19.3 0.00 0.00 0.00 23 1003.3
20260510103555 20 43 11.3 19.3 0.00 0.00 0.00 23 1003.3
20260510103100 20 35 14.5 19.3 0.00 0.00 0.00 24 1003.3
20260510102555 20 46 12.9 19.3 0.00 0.00 0.00 24 1003.2
20260510102053 20 34 14.5 17.7 0.00 0.00 0.00 24 1003.3
20260510101600 21 29 12.9 17.7 0.00 0.00 0.00 23 1003.3
20260510101050 21 65 12.9 17.7 0.00 0.00 0.00 22 1003.3
20260510100549 20 52 8.0 14.5 0.00 0.00 0.00 23 1003.2
20260510100049 20 67 11.3 14.5 0.00 0.00 0.00 24 1003.2
20260510095547 20 76 11.3 14.5 0.00 0.00 0.00 24 1003.2
20260510095044 20 93 8.0 14.5 0.00 0.00 0.00 23 1003.2
20260510094547 20 68 6.4 14.5 0.00 0.00 0.00 23 1003.1
20260510094044 20 86 6.4 14.5 0.00 0.00 0.00 23 1003.1
20260510093543 20 93 8.0 14.5 0.00 0.00 0.00 23 1003.0
20260510093042 20 50 8.0 11.3 0.00 0.00 0.00 23 1002.9
20260510092540 20 69 8.0 11.3 0.00 0.00 0.00 22 1002.9
20260510092039 21 66 4.8 9.7 0.00 0.00 0.00 22 1002.9
20260510091539 21 61 4.8 8.0 0.00 0.00 0.00 22 1002.8
20260510091038 21 95 3.2 6.4 0.00 0.00 0.00 21 1002.7
20260510090538 21 145 1.6 8.0 0.00 0.00 0.00 20 1002.7
20260510090039 22 146 3.2 8.0 0.00 0.00 0.00 20 1002.8
20260510085537 22 146 3.2 11.3 0.00 0.00 0.00 19 1002.7
20260510085038 22 122 4.8 9.7 0.00 0.00 0.00 19 1002.7
20260510084535 22 189 6.4 8.0 0.00 0.00 0.00 19 1002.7
20260510084035 22 189 4.8 9.7 0.00 0.00 0.00 19 1002.6
20260510083534 22 188 6.4 9.7 0.00 0.00 0.00 19 1002.5
20260510083034 22 204 6.4 9.7 0.00 0.00 0.00 19 1002.4
20260510082534 22 145 3.2 11.3 0.00 0.00 0.00 19 1002.3
20260510082036 22 144 4.8 14.5 0.00 0.00 0.00 20 1002.3
20260510081539 21 128 8.0 14.5 0.00 0.00 0.00 19 1002.4
20260510081033 21 93 4.8 11.3 0.00 0.00 0.00 20 1002.5
20260510080532 22 115 6.4 11.3 0.00 0.00 0.00 19 1002.4
20260510080033 22 165 3.2 12.9 0.00 0.00 0.00 19 1002.3
20260510075531 22 161 8.0 12.9 0.00 0.00 0.00 19 1002.3
20260510075031 21 159 6.4 9.7 0.00 0.00 0.00 20 1002.3
20260510074532 21 158 4.8 9.7 0.00 0.00 0.00 20 1002.3
20260510074032 21 148 4.8 9.7 0.00 0.00 0.00 20 1002.3
20260510073533 21 123 3.2 11.3 0.00 0.00 0.00 20 1002.3
20260510073031 21 128 4.8 12.9 0.00 0.00 0.00 20 1002.4
20260510072531 21 129 4.8 14.5 0.00 0.00 0.00 20 1002.3
20260510072033 21 145 6.4 14.5 0.00 0.00 0.00 20 1002.4
20260510071531 21 162 9.7 14.5 0.00 0.00 0.00 20 1002.2
20260510071028 21 133 6.4 11.3 0.00 0.00 0.00 20 1002.2
20260510070526 22 102 3.2 6.4 0.00 0.00 0.00 20 1002.3
20260510070032 23 26 3.2 6.4 0.00 0.00 0.00 18 1002.2
20260510065525 23 293 1.6 8.0 0.00 0.00 0.00 17 1002.2
20260510065028 23 285 4.8 8.0 0.00 0.00 0.00 17 1002.1
20260510064524 23 285 3.2 8.0 0.00 0.00 0.00 17 1002.2
20260510064023 23 287 4.8 12.9 0.00 0.00 0.00 17 1002.2
20260510063523 23 302 6.4 12.9 0.00 0.00 0.00 17 1002.2
20260510063023 23 297 4.8 8.0 0.00 0.00 0.00 17 1002.2
20260510062523 23 292 3.2 4.8 0.00 0.00 0.00 17 1002.2
20260510062028 23 304 0.0 16.1 0.00 0.00 0.00 17 1002.2
20260510061527 23 305 4.8 16.1 0.00 0.00 0.00 17 1002.2
20260510061022 23 294 3.2 17.7 0.00 0.00 0.00 17 1002.1
20260510060525 23 292 9.7 17.7 0.00 0.00 0.00 17 1002.2
20260510060019 23 295 4.8 12.9 0.00 0.00 0.00 18 1002.2
20260510055518 22 301 3.2 8.0 0.00 0.00 0.00 18 1002.2
20260510055018 22 198 0.0 3.2 0.00 0.00 0.00 19 1002.2
20260510054518 22 198 0.0 3.2 0.00 0.00 0.00 19 1002.3
20260510054018 22 198 0.0 8.0 0.00 0.00 0.00 19 1002.3
20260510053517 21 143 3.2 8.0 0.00 0.00 0.00 20 1002.3
20260510053017 21 172 3.2 6.4 0.00 0.00 0.00 19 1002.2
20260510052517 22 172 1.6 6.4 0.00 0.00 0.00 19 1002.3
20260510052017 22 172 3.2 8.0 0.00 0.00 0.00 19 1002.3
20260510051528 23 172 4.8 8.0 0.00 0.00 0.00 17 1002.3
20260510051016 24 226 1.6 4.8 0.00 0.00 0.00 16 1002.4
20260510050516 25 279 1.6 3.2 0.00 0.00 0.00 16 1002.4
20260510050016 25 279 0.0 4.8 0.00 0.00 0.00 16 1002.4
20260510045519 25 279 1.6 11.3 0.00 0.00 0.00 15 1002.4
20260510045017 25 284 3.2 11.3 0.00 0.00 0.00 15 1002.4
20260510044514 25 266 4.8 9.7 0.00 0.00 0.00 15 1002.4
20260510044014 25 252 4.8 11.3 0.00 0.00 0.00 15 1002.3
20260510043514 26 264 4.8 11.3 0.00 0.00 0.00 15 1002.3
20260510043021 26 267 6.4 16.1 0.00 0.00 0.00 15 1002.3
20260510042514 26 260 9.7 16.1 0.00 0.00 0.00 15 1002.3
20260510042014 26 279 8.0 14.5 0.00 0.00 0.00 15 1002.2
20260510041514 26 259 3.2 11.3 0.00 0.00 0.00 15 1002.2
20260510041014 26 263 4.8 14.5 0.00 0.00 0.00 15 1002.2
20260510040514 26 249 8.0 19.3 0.00 0.00 0.00 14 1002.1
20260510040014 26 249 9.7 19.3 0.00 0.00 0.00 14 1002.0
20260510035513 26 236 11.3 20.9 0.00 0.00 0.00 14 1002.0
20260510035013 26 264 8.0 20.9 0.00 0.00 0.00 14 1001.9
20260510034513 27 258 9.7 20.9 0.00 0.00 0.00 14 1001.9
20260510034017 27 249 9.7 19.3 0.00 0.00 0.00 14 1001.8
20260510033512 27 241 9.7 19.3 0.00 0.00 0.00 14 1001.8
20260510033012 27 250 11.3 20.9 0.00 0.00 0.00 14 1001.7
20260510032512 27 241 9.7 20.9 0.00 0.00 0.00 14 1001.7
20260510032012 27 248 9.7 24.1 0.00 0.00 0.00 13 1001.7
20260510031511 27 234 14.5 24.1 0.00 0.00 0.00 13 1001.6
20260510031011 27 252 12.9 20.9 0.00 0.00 0.00 13 1001.5
20260510030511 28 247 12.9 22.5 0.00 0.00 0.00 13 1001.5
20260510030014 28 268 11.3 24.1 0.00 0.00 0.00 13 1001.4
20260510025510 28 234 12.9 22.5 0.00 0.00 0.00 13 1001.3
20260510025011 28 258 12.9 17.7 0.00 0.00 0.00 13 1001.3
20260510024510 28 242 11.3 20.9 0.00 0.00 0.00 13 1001.2
20260510024010 28 247 12.9 20.9 0.00 0.00 0.00 13 1001.1
20260510023510 28 243 12.9 24.1 0.00 0.00 0.00 13 1001.0
20260510023010 28 250 12.9 29.0 0.00 0.00 0.00 13 1000.9
20260510022513 29 252 17.7 29.0 0.00 0.00 0.00 13 1000.8
20260510022010 29 257 17.7 25.7 0.00 0.00 0.00 13 1000.8
20260510021514 29 247 17.7 25.7 0.00 0.00 0.00 13 1000.7
20260510021010 29 252 16.1 27.4 0.00 0.00 0.00 13 1000.6
20260510020509 29 243 14.5 27.4 0.00 0.00 0.00 13 1000.5
20260510020009 29 262 14.5 22.5 0.00 0.00 0.00 13 1000.4
20260510015508 30 253 9.7 19.3 0.00 0.00 0.00 13 1000.4
20260510015007 30 271 9.7 19.3 0.00 0.00 0.00 13 1000.4
20260510014508 30 257 9.7 22.5 0.00 0.00 0.00 12 1000.3
20260510014007 30 254 11.3 22.5 0.00 0.00 0.00 12 1000.2
20260510013507 30 275 12.9 22.5 0.00 0.00 0.00 12 1000.2
20260510013007 30 233 9.7 25.7 0.00 0.00 0.00 12 1000.1
20260510012511 31 241 12.9 25.7 0.00 0.00 0.00 12 1000.1
20260510012006 31 255 16.1 25.7 0.00 0.00 0.00 12 1000.0
20260510011506 31 261 14.5 29.0 0.00 0.00 0.00 12 1000.0
20260510011006 31 253 16.1 29.0 0.00 0.00 0.00 12 1000.0
20260510010505 31 274 12.9 20.9 0.00 0.00 0.00 12 1000.0
20260510010005 31 243 8.0 17.7 0.00 0.00 0.00 12 1000.0
20260510005504 31 237 9.7 17.7 0.00 0.00 0.00 12 1000.0
20260510005003 31 232 4.8 16.1 0.00 0.00 0.00 12 1000.0
20260510004503 31 189 8.0 22.5 0.00 0.00 0.00 12 1000.0
20260510004007 31 177 8.0 22.5 0.00 0.00 0.00 12 1000.0
20260510003503 31 243 9.7 19.3 0.00 0.00 0.00 12 1000.1
20260510003003 31 205 14.5 22.5 0.00 0.00 0.00 12 1000.1
20260510002505 32 223 8.0 22.5 0.00 0.00 0.00 12 1000.0
20260510002002 32 210 11.3 19.3 0.00 0.00 0.00 12 1000.1
20260510001505 32 221 11.3 29.0 0.00 0.00 0.00 12 1000.1
20260510001002 32 209 16.1 29.0 0.00 0.00 0.00 12 1000.1
20260510000501 32 244 11.3 22.5 0.00 0.00 0.00 12 1000.1
20260510000004 32 215 9.7 24.1 0.00 0.00 0.00 12 1000.2
20260509235602 32 233 12.9 24.1 0.00 0.00 0.00 12 1000.3
20260509235101 32 245 9.7 24.1 0.00 0.00 0.00 12 1000.3
20260509234559 32 181 12.9 24.1 0.00 0.00 0.00 11 1000.4
20260509234059 32 196 11.3 20.9 0.00 0.00 0.00 11 1000.4
20260509233559 32 204 8.0 24.1 0.00 0.00 0.00 12 1000.4
20260509233057 32 246 8.0 24.1 0.00 0.00 0.00 11 1000.5
20260509232600 32 285 6.4 25.7 0.00 0.00 0.00 12 1000.6
20260509232057 32 259 16.1 25.7 0.00 0.00 0.00 12 1000.6
20260509231607 32 169 6.4 22.5 0.00 0.00 0.00 11 1000.6
20260509231056 32 198 11.3 20.9 0.00 0.00 0.00 11 1000.7
20260509230559 32 176 11.3 20.9 0.00 0.00 0.00 11 1000.7
20260509230054 32 218 8.0 20.9 0.00 0.00 0.00 11 1000.8
20260509225553 32 268 12.9 20.9 0.00 0.00 0.00 11 1000.9
20260509225051 32 286 1.6 16.1 0.00 0.00 0.00 11 1000.9
20260509224550 32 180 4.8 11.3 0.00 0.00 0.00 11 1000.9
20260509224051 32 258 3.2 19.3 0.00 0.00 0.00 11 1001.0
20260509223548 32 197 11.3 19.3 0.00 0.00 0.00 11 1001.2
20260509223051 32 153 6.4 17.7 0.00 0.00 0.00 11 1001.2
20260509222549 32 127 11.3 20.9 0.00 0.00 0.00 11 1001.2
20260509222045 32 148 11.3 20.9 0.00 0.00 0.00 11 1001.4
20260509221546 32 162 11.3 30.6 0.00 0.00 0.00 11 1001.4